Regional Weather Roundup
Issued by NWS

Home | Current Version | Previous Version | Text Only | Print | Product List | Glossary Off
Versions: 1 2 3 4 5 6 7 8 9 10 11 12 13 14 15 16 17 18 19 20 21 22 23 24 25 26 27 28 29 30 31 32 33 34 35 36 37 38 39 40 41 42 43 44 45 46 47 48 49 50

703
ASUS43 KMPX 261401
RWRMN
WEATHER ROUNDUP FOR MINNESOTA
NATIONAL WEATHER SERVICE TWIN CITIES/CHANHASSEN MN
900 AM CDT WED JUL 26 2017


NOTE: "FAIR" INDICATES FEW OR NO CLOUDS BELOW 12,000 FEET WITH NO
SIGNIFICANT WEATHER AND/OR OBSTRUCTIONS TO VISIBILITY. N/A MEANS
CURRENT SKY AND/OR WEATHER CONDITIONS ARE NOT AVAILABLE.

MNZ060>063-068>070-261500-
   Twin Cities Metro

CITY           SKY/WX    TMP DP  RH WIND       PRES   REMARKS
TWIN CITIES    CLOUDY    72  68  87 NW6       30.00F
ST PAUL        CLOUDY    72  71  97 NW5       30.00F
CRYSTAL        LGT RAIN  73  69  87 NW5       30.00S
BLAINE         DRIZZLE   73  73 100 VRB3      30.01S
LAKEVILLE      LGT RAIN  70  70 100 W3        30.01R
SOUTH ST PAUL  CLOUDY    71  70  99 N5        29.99F
LAKE ELMO      CLOUDY    72  70  94 CALM      30.02F
$$
MNZ001>005-007-008-013>017-022>024-027-028-261500-
   Northwest Minnesota

CITY           SKY/WX    TMP DP  RH WIND       PRES   REMARKS
BEMIDJI        SUNNY     69  59  71 N8        30.01R
HALLOCK        SUNNY     66  63  88 N10       30.02R
ROSEAU         SUNNY     68  63  83 NW8       29.99S
WARROAD        SUNNY     64  63  94 NW8       29.98S
CROOKSTON      SUNNY     68  61  77 N13       30.03R
FOSSTON        SUNNY     66  59  77 NW7       30.03R
DETROIT LAKES  SUNNY     68  59  73 NW8       30.05R
MOORHEAD       SUNNY     70  61  73 N6        30.03S
PARK RAPIDS    SUNNY     72  58  61 N5        30.03R
MAHNOMEN       FAIR      67  60  80 NW5       30.02S
$$
MNZ006-009>011-018-025>026-261500-
   North Central Minnesota

CITY           SKY/WX    TMP DP  RH WIND       PRES   REMARKS
BAUDETTE       SUNNY     68  62  81 NW9       29.97R
FLAG ISLAND    SUNNY     66  61  82 NW13      29.96R
INTL FALLS     SUNNY     70  61  73 NW8       29.95S
WASKISH        SUNNY     68  61  77 W5        29.99R
BIG FORK       SUNNY     68  61  77 CALM      29.99S
LONGVILLE      SUNNY     70  61  73 NW6       30.02R
GRAND RAPIDS   SUNNY     70  61  73 NW6       30.03R
CRANE LAKE     SUNNY     66  61  82 W5        29.98R
ORR            SUNNY     66  57  72 W3        29.96S
COOK             N/A     66  59  77 CALM      29.99S
WALKER         FAIR      67  58  73 W6        30.02R
$$
MNZ012-019>021-037-261500-
   Northeast Minnesota

CITY           SKY/WX    TMP DP  RH WIND       PRES   REMARKS
DULUTH         MOSUNNY   71  61  70 N6        30.00S
ELY            SUNNY     68  55  64 CALM      29.98S
HIBBING        SUNNY     68  60  75 CALM      30.00S
EVELETH        SUNNY     67  56  68 W5        30.01R
DULUTH HARBOR  CLOUDY    72  64  78 NW5       29.99R
TWO HARBORS    CLOUDY    73  64  73 CALM      29.97S
SILVER BAY     SUNNY     72  63  73 CALM      29.96S
GRAND MARAIS     N/A     65  59  81 W8        29.93S
G MARAIS ARPRT MOSUNNY   66  57  72 SW3       29.98S
$$
MNZ029>031-032-039>041-046>048-054>057-064-261500-
   West Central Minnesota

CITY           SKY/WX    TMP DP  RH WIND       PRES   REMARKS
FERGUS FALLS   SUNNY     72  61  68 CALM      30.04R
WHEATON        CLOUDY    72  63  73 CALM      30.06R
MORRIS         CLOUDY    72  64  78 CALM      30.04R
ALEXANDRIA     CLOUDY    70  62  76 CALM      30.06R
ELBOW LAKE     FAIR      72  61  69 CALM      30.05R
WADENA         SUNNY     70  61  73 W3        30.04R
GLENWOOD       CLOUDY    70  63  78 CALM      30.06R
APPLETON       CLOUDY    72  64  78 NE3       30.03S
BENSON         CLOUDY    72  64  78 CALM      30.05S
ORTONVILLE     CLOUDY    72  66  83 MISG      30.05R
MADISON        CLOUDY    73  72  94 NE6       30.04R
WILLMAR        FAIR      72  66  83 CALM      30.05S
$$
MNZ033>034-036-042>043-049>051-058-059-261500-
   Central Minnesota

CITY           SKY/WX    TMP DP  RH WIND       PRES   REMARKS
ST CLOUD       CLOUDY    70  68  93 N3        30.02S
SAUK CENTRE    FAIR      70  61  72 N5        30.05R
PAYNESVILLE    CLOUDY    67  62  85 CALM      30.05S
AITKIN         MOSUNNY   70  61  73 CALM      30.01R
PINE RIVER     SUNNY     70  61  73 NW5       30.05R
BRAINERD       MOSUNNY   71  60  68 CALM      30.03R
STAPLES        MOSUNNY   70  57  64 CALM      30.04R
LONG PRAIRIE   FAIR      68  59  73 CALM      30.06R
LITTLE FALLS   CLOUDY    68  61  77 CALM      30.04R
LITCHFIELD     CLOUDY    73  72  94 CALM      30.04S
BUFFALO        DRIZZLE   71  67  88 CALM      30.03F
MAPLE LAKE     CLOUDY    72  71  97 CALM      30.04S
HUTCHINSON     LGT RAIN  71  71  98 CALM      30.05R
$$
MNZ037-044-045-052-053-261500-
   East Central Minnesota

CITY           SKY/WX    TMP DP  RH WIND       PRES   REMARKS
PRINCETON      PTSUNNY   72  70  94 CALM      30.02S
MORA           CLOUDY    68  63  83 NW3       30.04R
CAMBRIDGE      MOSUNNY   73  64  73 CALM      30.00S
RUSH CITY      HVY RAIN  68  65  91 CALM      30.03R
MOOSE LAKE     CLOUDY    68  63  83 CALM      29.99S
HINCKLEY       CLOUDY    70  66  88 NW3       30.01R
CLOQUET        PTSUNNY   70  61  73 W5        30.01R
MCGREGOR       MOSUNNY   70  61  73 NW3       30.02R
$$
MNZ071>073-080-081-089-090-097-098-261500-
   Southwest Minnesota

CITY           SKY/WX    TMP DP  RH WIND       PRES   REMARKS
MONTEVIDEO     CLOUDY    72  70  94 E3        30.04S
GRANITE FALLS  CLOUDY    73  70  91 NE7       30.05R
CANBY          CLOUDY    73  69  87 CALM      30.05S
MARSHALL       CLOUDY    71  70  96 N3        30.05R
REDWOOD FALLS  LGT RAIN  71  69  93 CALM      30.03R FOG
OLIVIA         PTSUNNY   70  68  94 N5        30.04R
PIPESTONE      CLOUDY    73  70  88 E6        30.04R
WINDOM         RAIN      72  68  88 E5        30.04S
WORTHINGTON    CLOUDY    70  68  93 CALM      30.05R
JACKSON        CLOUDY    70  68  94 CALM      30.04S
TRACY          CLOUDY    72  70  93 CALM      30.04S
SLAYTON        RAIN      69  67  94 NE5       30.05S
$$
MNZ065>067-074>077-082>085-091>093-261500-
   South Central Minnesota

CITY           SKY/WX    TMP DP  RH WIND       PRES   REMARKS
MANKATO        CLOUDY    72  70  93 S3        30.03R
NEW ULM        HVY RAIN  72  70  94 CALM      30.04R
ST JAMES       LGT RAIN  72  72 100 CALM      30.04R
FAIRMONT       CLOUDY    71  69  93 SE6       30.04R
GLENCOE        LGT RAIN  72  72 100 W3        30.02F
FARIBAULT      LGT RAIN  70  68  94 S9        30.03R
OWATONNA       RAIN      70  66  88 S9        30.05R
WASECA         RAIN      72  70  94 SE5       30.05R
ALBERT LEA     RAIN      70  70 100 NW3       30.04S
$$
MNZ078>079-086>088-094>096-261500-
   Southeast Minnesota

CITY           SKY/WX    TMP DP  RH WIND       PRES   REMARKS
ROCHESTER      CLOUDY    70  69  97 S5        30.02F
RED WING       LGT RAIN  70  68  94 CALM      29.97F
STANTON        LGT RAIN  71  68  90 W3        29.98R
DODGE CENTER   LGT RAIN  70  66  88 CALM      30.03R
WINONA         CLOUDY    72  70  94 CALM      30.00F
AUSTIN         LGT RAIN  72  68  88 CALM      30.04R
PRESTON        CLOUDY    69  66  91 SE6       30.04F
$$
ABBREVIATIONS USED IN REMARKS
   TC - TEMPERATURES IN CELSIUS
  WCI - WIND CHILL INDEX
   HX - HEAT INDEX
  VSB - VISIBILITY
$$




USA.gov is the U.S. government's official web portal to all federal, state and local government web resources and services.